CAPE
1171 1119 1094 1078 1080 1080 1035 1010 994 884 803 790 1032 1216 1344 1403 1452 1560 1631 1675 1796 2012 2176 2295 2430 2503 2545 2610 2633 2613 2513 2460 2438 2390 2288 2174 2203 2038 1450 1094 1064 907
1194 1125 1098 1085 1065 1057 1046 1020 993 919 781 702 814 1051 1216 1318 1381 1483 1576 1649 1772 1965 2101 2234 2353 2448 2494 2531 2580 2596 2563 2545 2543 2486 2435 2350 2330 2228 1732 1322 1122 1070
1232 1192 1136 1106 1083 1054 1044 1038 1016 986 868 723 650 837 1084 1249 1342 1393 1508 1582 1689 1884 2036 2140 2256 2391 2448 2466 2504 2540 2567 2590 2590 2547 2432 2386 2432 2342 2098 1818 1499 1240
1257 1223 1194 1154 1128 1086 1028 1011 1044 1044 996 855 708 644 889 1195 1317 1374 1436 1776 1599 1764 1976 2097 2158 2260 2379 2431 2424 2442 2487 2542 2603 2596 2446 2400 2423 2426 2280 2066 2025 1721
1281 1267 1226 1201 1166 1107 1016 951 1003 1044 1072 1031 885 742 901 1110 1310 1373 1424 1499 1578 1643 1864 2070 2152 2176 2249 2357 2395 2381 2391 2463 2532 2600 2528 2383 2398 2393 2338 2165 2144 2050
1293 1272 1252 1225 1172 1115 1060 968 976 997 1014 1054 1059 935 965 1086 1272 1362 1427 1456 1539 1594 1687 1908 2090 2166 2191 2235 2325 2360 2343 2370 2433 2507 2561 2487 2378 2358 2362 2301 2235 2123
1268 1254 1251 1227 1192 1128 1068 1054 1024 1021 1019 1016 1020 1033 1149 1190 1271 1378 1462 1477 1512 1579 1614 1721 1898 2054 2163 2208 2230 2281 2341 2358 2399 2421 2455 2496 2452 2386 2386 2403 2360 2228
1209 1200 1192 1180 1146 1082 1042 1105 1109 1099 1110 1070 1032 994 1308 1372 1366 1413 1470 1522 1535 1558 1609 1650 1733 1842 1997 2164 2219 2229 2270 2325 2387 2436 2460 2483 2504 2470 2453 2462 2446 2357
1111 1098 1092 1090 1068 1044 1020 1059 1107 1155 1169 1176 1156 1066 1105 1452 1534 1534 1548 1571 1577 1569 1596 1642 1691 1740 1809 1952 2107 2194 2236 2272 2332 2403 2453 2475 2469 2446 2441 2444 2439 2406
1083 1079 1076 1079 1090 1106 1104 1108 1121 1136 1194 1253 1291 1234 1169 1205 1515 1649 1699 1708 1686 1654 1625 1644 1686 1740 1791 1844 1949 2071 2152 2196 2264 2346 2405 2422 2414 2366 2331 2332 2326 2316
1089 1081 1089 1117 1146 1165 1189 1206 1221 1219 1213 1292 1360 1400 1347 1259 1283 1564 1748 1829 1843 1791 1741 1704 1700 1750 1820 1880 1934 2008 2082 2127 2169 2229 2298 2352 2358 2334 2294 2231 2186 2162
1224 1179 1157 1175 1199 1225 1253 1277 1317 1339 1340 1330 1350 1451 1548 1508 1404 1411 1612 1793 1892 1931 1889 1826 1772 1760 1818 1894 1954 2004 2050 2096 2122 2132 2158 2203 2244 2267 2262 2242 2204 2150
1361 1345 1305 1285 1312 1328 1328 1336 1354 1392 1422 1412 1385 1408 1507 1667 1723 1646 1600 1659 1752 1845 1904 1923 1897 1864 1843 1857 1909 1963 2013 2063 2093 2106 2114 2102 2122 2162 2181 2194 2192 2179
1410 1441 1444 1425 1411 1419 1424 1420 1426 1435 1452 1467 1452 1416 1398 1484 1714 1866 1883 1800 1772 1776 1787 1770 1773 1793 1823 1847 1862 1898 1944 1998 2042 2075 2078 2077 2063 2067 2103 2143 2175 2189
1426 1471 1522 1543 1537 1523 1523 1510 1510 1502 1505 1508 1491 1465 1406 1375 1394 1588 1862 2002 1986 1917 1890 1898 1887 1832 1796 1814 1849 1890 1921 1971 2012 2048 2073 2085 2081 2076 2088 2118 2160 2195
1520 1528 1535 1600 1624 1624 1605 1596 1569 1566 1563 1560 1543 1531 1499 1450 1380 1341 1382 1592 1847 1984 2004 1985 1999 2030 2000 1930 1910 1936 1986 2028 2058 2078 2103 2116 2125 2130 2151 2168 2175 2183
1699 1695 1663 1633 1640 1611 1679 1672 1647 1627 1619 1615 1609 1588 1562 1528 1478 1422 1353 1303 1331 1502 1721 1848 1886 1917 2023 2088 2091 2068 2052 2087 2122 2156 2166 2181 2204 2236 2244 2244 2244 2235
1852 1833 1788 1819 1849 1867 1810 1705 1725 1711 1691 1670 1656 1641 1616 1566 1547 1495 1444 1380 1310 1285 1366 1530 1680 1739 1798 1928 2080 2145 2160 2126 2142 2194 2220 2240 2273 2322 2349 2340 2328 2314
1969 1966 1963 2075 2128 2111 2101 2028 1904 1785 1765 1727 1694 1680 1655 1652 1614 1556 1508 1448 1382 1333 1302 1351 1498 1611 1735 1802 1880 2011 2123 2170 2121 2136 2211 2264 2298 2341 2384 2406 2415 2428
2131 2088 2197 2300 2336 2336 2304 2255 2183 2071 1918 1798 1756 1731 1709 1687 1663 1641 1602 1557 1496 1424 1369 1353 1411 1523 1680 1799 1860 1890 1968 2088 2138 2087 2089 2175 2259 2307 2355 2394 2432 2461
2349 2297 2430 2494 2532 2522 2485 2484 2491 2426 2327 2188 2012 1866 1804 1759 1724 1715 1695 1662 1612 1556 1511 1468 1465 1508 1632 1753 1847 1908 1946 1974 2072 2128 2132 2135 2183 2252 2309 2347 2392 2431
2629 2520 2606 2664 2676 2683 2702 2751 2807 2853 2834 2792 2643 2452 2264 2046 1845 1771 1735 1702 1685 1674 1651 1607 1564 1582 1666 1764 1853 1934 1985 2008 2026 2062 2108 2141 2166 2203 2254 2309 2362 2415
2802 2742 2809 2856 2888 2902 2926 2954 2991 3043 3074 3058 3029 2933 2750 2516 2284 2052 1872 1769 1714 1706 1716 1701 1679 1688 1711 1773 1893 1998 2066 2113 2126 2126 2129 2124 2134 2163 2210 2279 2357 2407
2878 2920 2965 3003 3031 3058 3076 3109 3150 3187 3243 3252 3253 3171 3047 2887 2690 2474 2222 1965 1805 1722 1689 1722 1742 1757 1782 1800 1837 1957 2062 2125 2168 2205 2222 2235 2240 2243 2262 2298 2349 2410
3280 3234 3090 3110 3154 3169 3206 3250 3284 3333 3347 3354 3362 3329 3283 3176 3032 2857 2633 2372 2104 1863 1728 1728 1768 1806 1844 1878 1895 1929 1997 2074 2113 2155 2179 2219 2262 2297 2340 2373 2422 2453
3539 3486 3429 3378 3258 3335 3370 3413 3436 3450 3453 3465 3455 3412 3390 3317 3229 3094 2948 2764 2568 2383 2251 2146 2031 1933 2016 2029 2050 2048 2064 2110 2156 2202 2246 2283 2336 2388 2437 2477 2515 2552
Wind_Speed
5 7 6 7 7 8 8 8 8 7 5 5 3 3 4 6 5 7 8 6 7 7 7 8 8 9 10 10 11 11 11 13 12 11 12 12 11 11 11 11 10 11
5 6 7 7 9 10 11 10 9 8 7 5 5 5 5 4 6 7 7 6 4 5 4 5 5 6 7 8 9 10 10 11 13 11 13 14 14 13 14 13 12 11
7 8 7 6 6 7 8 10 10 9 8 6 6 6 6 6 6 5 5 3 3 3 4 5 5 6 7 7 8 8 9 9 10 10 12 14 14 15 14 14 12 12
8 8 8 8 9 9 10 11 11 10 10 9 7 6 5 5 4 2 1 1 2 3 5 7 7 8 8 8 8 8 8 8 8 9 10 10 11 12 13 12 12 11
10 11 12 12 11 11 12 11 10 10 9 9 9 8 6 5 4 3 3 3 5 5 7 8 8 8 9 9 9 8 8 7 8 9 9 9 10 10 10 11 11 12
13 13 13 12 12 11 11 10 10 10 10 10 8 8 6 5 5 5 5 5 6 6 7 7 8 8 8 9 9 8 8 8 8 9 9 9 9 10 9 10 10 11
12 12 12 13 11 10 11 11 13 12 12 11 13 10 8 7 6 6 5 5 5 6 6 6 7 8 8 9 9 8 8 8 8 9 9 8 8 9 9 10 10 10
12 13 13 13 11 11 10 11 12 12 12 13 10 9 9 6 5 5 5 4 4 5 5 6 6 7 9 9 9 8 8 7 7 8 7 7 8 8 10 10 10 10
13 13 13 12 11 12 11 11 11 12 12 10 9 10 9 7 6 5 5 5 4 5 5 5 6 7 8 9 9 9 8 7 7 7 7 6 7 8 9 10 10 10
13 14 13 13 13 13 11 10 10 11 11 9 8 9 8 7 7 6 6 5 4 4 5 5 6 6 7 8 8 8 7 6 6 6 6 6 6 7 8 10 10 9
12 13 13 14 14 14 11 11 10 10 10 8 8 7 7 8 8 8 6 5 4 4 5 6 6 7 7 6 6 5 5 5 6 6 6 6 6 6 6 7 7 8
11 13 13 13 13 13 12 11 10 10 9 9 7 6 7 7 7 7 6 4 4 3 4 4 5 6 6 6 5 4 4 4 4 4 4 4 4 4 3 4 5 6
12 13 13 13 12 12 13 13 11 9 8 7 7 7 7 7 6 5 5 4 3 3 3 3 4 5 5 4 4 3 2 1 1 0 1 1 2 3 4 4 6 7
14 14 14 13 14 13 13 12 11 11 9 9 9 7 7 6 5 4 4 4 2 2 2 3 4 4 2 1 1 1 1 3 4 5 6 6 6 6 6 7 8 9
14 15 15 15 14 13 12 11 11 11 11 10 9 8 9 7 6 5 4 4 3 2 2 3 3 1 1 1 2 4 5 7 8 8 8 8 9 8 7 7 8 9
14 16 16 15 14 12 12 13 13 13 11 10 9 9 9 8 7 5 4 4 3 3 3 3 1 2 3 6 5 6 7 8 9 9 9 9 9 8 7 6 8 8
16 16 16 14 14 15 15 14 13 13 12 11 10 10 9 8 7 5 4 5 3 2 2 2 2 4 6 6 7 9 7 8 8 8 8 8 7 6 6 6 6 8
16 16 15 15 16 15 15 15 15 13 12 10 10 9 9 9 6 5 5 5 5 2 1 2 3 5 6 6 6 7 6 7 8 8 7 7 6 5 5 4 5 5
15 13 13 14 14 14 14 15 13 11 10 9 8 9 11 8 6 7 6 5 4 2 2 3 6 5 6 6 5 4 5 5 8 7 6 6 5 4 3 3 3 3
12 10 10 10 12 12 13 12 11 9 9 10 11 11 9 8 8 7 7 6 5 4 4 6 7 7 5 4 4 3 2 2 7 7 6 5 4 2 2 1 2 3
10 10 9 10 11 12 12 10 10 10 10 11 12 10 8 9 10 9 9 8 7 7 7 7 8 6 6 4 4 2 2 4 7 7 7 5 4 3 1 1 2 3
7 7 7 8 10 11 11 10 11 11 11 13 13 12 11 12 12 12 11 10 9 9 8 6 8 6 6 6 5 5 7 9 8 7 6 6 4 3 3 4 4 4
6 4 3 4 5 7 7 9 10 11 12 15 13 12 12 12 12 13 14 13 11 10 8 7 9 8 8 8 8 10 14 13 10 9 8 6 4 5 5 5 5 5
6 4 3 3 4 5 5 6 7 10 12 14 12 11 11 12 15 16 16 15 12 10 9 9 11 12 11 11 12 14 16 14 13 11 7 5 6 7 8 8 5 5
7 6 5 4 5 5 6 6 6 8 11 14 12 13 12 15 18 17 16 16 14 12 10 10 13 15 14 13 14 17 17 16 15 13 8 6 8 9 10 9 7 7
11 9 8 7 6 6 7 7 7 8 12 14 13 13 14 17 18 17 16 15 16 15 14 13 14 16 18 16 17 17 17 17 17 13 8 8 11 11 11 10 10 11
Wind_Direction
190 203 202 189 172 169 167 166 167 165 164 171 143 105 77 81 91 78 78 77 66 57 49 40 33 32 36 33 34 34 34 38 42 41 39 34 35 30 29 26 19 17
191 207 208 202 187 175 168 169 166 160 157 152 129 122 119 124 98 90 87 80 69 49 27 19 8 6 10 12 14 19 27 28 37 36 40 38 39 33 34 26 21 13
199 202 208 210 195 173 163 170 169 163 156 138 142 147 135 125 112 106 95 78 48 22 349 341 337 336 341 347 346 354 4 10 21 19 26 33 33 32 34 27 21 13
199 200 200 200 201 187 178 177 171 168 161 158 148 154 156 148 146 137 142 348 311 319 322 318 327 325 326 333 332 338 347 354 357 350 6 17 21 23 26 18 17 14
204 201 197 200 201 194 188 180 171 169 165 159 169 178 183 192 206 220 252 280 293 303 306 316 317 326 325 327 329 337 337 344 338 336 349 3 6 5 13 3 9 12
206 204 201 202 203 198 188 184 182 177 174 178 179 197 196 216 234 250 269 290 294 302 307 308 314 326 325 326 325 336 337 338 339 335 347 359 357 350 353 355 359 5
212 209 204 203 200 194 188 190 193 190 186 185 204 208 219 230 247 261 274 288 295 297 308 311 317 321 316 317 322 335 338 339 334 337 350 356 345 348 345 345 352 360
215 211 205 201 192 191 191 194 197 197 198 205 211 216 232 240 252 254 256 271 280 297 305 312 315 319 314 315 327 335 343 329 334 338 349 353 335 347 343 340 340 349
219 213 205 195 186 188 189 190 192 196 205 208 212 220 228 237 246 248 251 263 277 291 302 308 316 316 314 320 330 337 343 338 331 333 341 345 342 350 343 331 334 345
220 212 202 191 184 186 186 183 187 194 204 206 213 221 228 230 238 242 245 260 278 289 298 306 311 315 318 325 334 333 336 337 324 321 326 336 346 345 336 329 341 348
212 208 198 189 185 187 178 179 184 191 202 207 217 217 222 232 232 238 246 258 275 297 304 311 323 320 319 320 318 316 323 316 309 310 322 337 343 344 330 335 340 358
201 200 194 190 188 185 177 178 185 191 199 206 215 216 226 232 237 241 252 267 281 299 303 316 313 306 312 320 325 318 305 299 298 305 320 331 346 357 359 355 8 24
189 191 192 192 191 186 184 186 187 189 194 197 212 220 232 232 236 248 253 268 295 293 296 300 290 289 302 314 319 319 322 315 320 1 26 31 61 63 65 62 60 62
184 190 192 194 195 192 188 188 189 190 190 194 209 220 227 232 241 253 256 263 284 281 287 274 270 274 300 307 293 358 101 112 111 111 107 108 108 102 94 85 78 74
192 195 196 196 197 196 191 190 191 192 195 198 205 211 217 224 232 241 253 261 252 251 260 268 274 312 193 169 133 111 118 116 116 116 114 115 113 108 105 93 85 75
198 200 200 198 196 193 192 192 194 197 199 200 201 206 216 224 230 235 243 252 252 261 272 260 230 173 107 64 81 122 125 129 134 128 123 122 120 117 110 92 80 71
201 200 200 195 190 192 195 195 196 200 201 201 202 208 217 226 233 237 240 246 260 271 293 270 188 162 90 88 85 82 116 135 132 131 136 131 128 123 112 96 82 65
201 201 197 191 193 192 196 199 202 203 202 202 206 212 219 226 232 238 242 250 250 252 252 223 187 137 108 107 98 88 95 128 145 148 148 144 144 131 124 107 79 64
202 200 191 190 194 197 200 205 206 206 204 207 208 216 222 227 231 241 246 255 258 255 207 200 191 153 132 124 126 110 87 112 153 160 163 160 162 146 121 96 76 56
198 195 190 193 202 208 211 213 216 215 219 218 217 222 225 227 236 245 250 257 256 245 225 215 202 176 168 162 162 155 129 166 162 161 165 166 164 160 169 80 28 17
196 196 199 207 214 220 222 222 224 225 234 234 233 234 234 237 242 245 249 253 248 244 237 223 209 189 205 211 205 213 219 231 187 180 170 162 167 190 220 289 310 332
185 192 199 214 224 229 232 232 231 235 242 243 240 235 234 237 240 243 249 252 249 250 249 227 215 220 231 238 250 249 258 229 210 193 180 171 174 208 233 249 272 311
176 180 193 226 246 252 252 247 243 242 243 245 245 242 241 244 245 245 243 246 250 253 251 230 222 229 244 253 261 269 254 230 222 211 200 184 187 223 236 243 259 286
188 200 224 261 276 295 295 275 261 250 252 254 255 250 245 241 240 239 243 248 253 252 249 234 226 233 252 254 265 274 270 247 234 229 211 204 210 229 239 244 263 340
211 222 235 258 283 302 303 302 284 266 258 257 256 249 242 237 235 234 238 243 250 252 257 249 231 236 258 261 268 274 271 248 245 238 227 227 236 235 247 254 265 291
226 236 242 253 272 286 289 300 291 267 256 255 253 249 242 238 235 234 236 240 246 251 252 252 241 239 252 269 270 275 285 264 253 251 248 250 251 252 255 268 280 287